Regional Weather Roundup
Issued by NWS

Home | Current Version | Previous Version | Graphics & Text | Print | Product List | Glossary On
Versions: 1 2 3 4 5 6 7 8 9 10 11 12 13 14 15 16 17 18 19 20 21 22 23 24 25 26 27 28 29 30 31 32 33 34 35 36 37 38 39 40 41 42 43 44 45 46 47 48 49 50
000
ASUS43 KDTX 201110
RWRMI
MICHIGAN HOURLY REGIONAL WEATHER ROUNDUP
NATIONAL WEATHER SERVICE DETROIT/PONTIAC MI
600 AM EST FRI JAN 20 2017

NOTE: "FAIR" INDICATES FEW OR NO CLOUDS BELOW 12,000 FEET WITH NO
SIGNIFICANT WEATHER AND/OR OBSTRUCTION TO VISIBILITY.

MIZ047>049-052>055-059>063-066>070-074>076-081>083-201200-
SOUTHEAST LOWER MICHIGAN

CITY           SKY/WX    TMP DP  RH WIND       PRES   REMARKS
ADRIAN         MIX PCPN  32  32 100 E13       29.66F FOG     WCI  22
ALMA           CLOUDY    32  32 100 NE9       29.72F FOG     WCI  24
ANN ARBOR      LGT RAIN  33  33 100 NE12      29.68F FOG     WCI  24
BAD AXE        FOG       31  31 100 SE6       29.77F VSB 1/2 WCI  25
CARO           CLOUDY    32  32 100 E3        29.75S FOG
DETROIT CITY   CLOUDY    32  32 100 E10       29.73F FOG     WCI  24
DETROIT        CLOUDY    34  33  96 NE12      29.71F FOG     WCI  25
FLINT          CLOUDY    33  31  92 E9        29.71F FOG     WCI  25
GROSSE ILE     CLOUDY    33  33  99 E8        29.70F FOG     WCI  26
HILLSDALE      LGT RAIN  32  32 100 E10G16    29.62F WCI  24
HOWELL         CLOUDY    33  32  96 E8        29.68F FOG     WCI  26

CITY           SKY/WX    TMP DP  RH WIND       PRES   REMARKS
JACKSON        LGT RAIN  35  33  92 E9        29.64F FOG     WCI  28
LAMBERTVILLE   LGT RAIN  35  33  94 E8        29.66F WCI  28
LANSING        LGT RAIN  34  32  92 E7        29.68F FOG     WCI  28
LAPEER         CLOUDY    32  32 100 E3        29.74F FOG
MASON          LGT RAIN  34  33  99 E7        29.67F WCI  28
MONROE         MIX PCPN  34  34 100 E12       29.67F WCI  25
MT. CLEMENS    CLOUDY    32  32 100 E9        29.72F WCI  24
PONTIAC        CLOUDY    32  30  92 E10       29.69F FOG     WCI  24
PORT HOPE        N/A     33  33 100 SE12      29.76F WCI  24
PORT HURON     CLOUDY    32  32 100 E3        29.76F FOG
TRI CITIES     FOG       31  31 100 E8        29.76F VSB 1/4 WCI  23
MIDLAND        FOG       32  31  96 E5        29.76S VSB 1/2 WCI  27
TROY           FOG       32  32  98 E10       29.75F VSB 3/4 WCI  24
SAGINAW HB     CLOUDY    32  32 100 E5        29.75F FOG     WCI  27
$$
MIZ043>046-050>051-056>058-064>065-071>073-077>080-201200-
SOUTHWEST LOWER MICHIGAN

CITY           SKY/WX    TMP DP  RH WIND       PRES   REMARKS
BATTLE CREEK   RAIN      36  35  96 E6        29.64F FOG     WCI  31
BENTON HARBOR  LGT RAIN  39  36  89 NE5       29.64F FOG
BIG RAPIDS     CLOUDY    33  31  94 SE6       29.70S FOG     WCI  27
COLDWATER      LGT RAIN  36  36 100 E7        29.62F WCI  30
FREMONT        LGT RAIN  34  34 100 NE3       29.70S
HOLLAND        LGT RAIN  36  34  92 NE6       29.68F WCI  31
GRAND RAPIDS   LGT RAIN  34  32  92 NE9       29.68F FOG     WCI  27
IONIA          MIX PCPN  32  32  99 NE9       29.68F VSB 1   WCI  24
KALAMAZOO      RAIN      38  34  85 VRB5      29.65S FOG     WCI  34
LUDINGTON      CLOUDY    34  34 100 CALM      29.70F FOG
MARSHALL       LGT RAIN  35  35  98 NE5       29.63F WCI  31
MOUNT PLEASANT CLOUDY    32  32  99 E7        29.73F FOG     WCI  26
MUSKEGON       LGT RAIN  36  35  96 NE3       29.70F FOG
SOUTH HAVEN    LGT SNOW  37  37  99 NE6       29.65F WCI  32
$$
MIZ016>042-201200-
NORTHERN LOWER MICHIGAN

CITY           SKY/WX    TMP DP  RH WIND       PRES   REMARKS
ALPENA         FOG       32  31  96 SE9       29.79F VSB 1/4 WCI  24
BEAVER ISLAND  FOG       32  32 100 E7        29.75F VSB 1/4 WCI  26
BELLAIRE       PTCLDY    30  30  99 CALM      29.73F FOG
CADILLAC       CLOUDY    32  31  97 E5        29.68F FOG     WCI  27
CHARLEVOIX     FOG       31  31 100 E3        29.77S VSB 1/2
FRANKFORT      CLOUDY    34  33  95 CALM      29.71S FOG
GAYLORD        FOG       32  28  85 SE6       29.72F VSB 3/4 WCI  26
GRAYLING       FOG       32  32 100 E6        29.73S VSB 3/4 WCI  26
HARBOR SPRINGS FOG       31  31 100 E10       29.74F VSB 1/2 WCI  22
HOUGHTON LAKE  CLOUDY    31  30  96 E9        29.71F FOG     WCI  23
MANISTEE       CLOUDY    35  33  92 CALM      29.71S
OSCODA         FOG       33  32  97 E5        29.77F VSB 1/4 WCI  28
PELLSTON       FOG       32  30  92 E7        29.76F VSB 1/4 WCI  26
ROGERS CITY    FOG       32  31  98 SE5       29.79F VSB 1/2 WCI  27
TRAVERSE CITY  CLOUDY    34  32  92 CALM      29.71F FOG
$$
MIZ007>008-015-201200-
EASTERN UPPER MICHIGAN

CITY           SKY/WX    TMP DP  RH WIND       PRES   REMARKS
KINROSS        LGT RAIN  32  32 100 E8        29.77F VSB 3/4 WCI  25
MACKINAC ISLAN FOG       32  32 100 E8        29.76F VSB 1/2 WCI  25
NEWBERRY       FOG       32  31  97 E6        29.74F VSB 1/2 WCI  26
S. S. MARIE    FOG       34  32  92 E6        29.78F VSB 3/4 WCI  29
MUNISING         N/A     33  33 100 S7        29.72F WCI  27
$$
MIZ004>006-011>014-085-201200-
CENTRAL UPPER MICHIGAN

CITY           SKY/WX    TMP DP  RH WIND       PRES   REMARKS
MANISTIQUE     FOG       32  32  99 E5        29.74F VSB 1/4 WCI  27
ESCANABA       FOG       32  31  96 NW3       29.73F VSB 1/4
SAWYER-GWINN   FOG       27  27  99 SW5       29.71F VSB 3/4 WCI  22
$$
MIZ001>003-009>011-084-201200-
WESTERN UPPER MICHIGAN

CITY           SKY/WX    TMP DP  RH WIND       PRES   REMARKS
IRON MOUNTAIN  FOG       30  27  88 CALM      29.70F VSB 1/4
HOUGHTON       CLOUDY    25  22  88 NW3       29.68F
COPPER HARBOR    N/A     32  30  92 W6        29.70S WCI  26
IRONWOOD       CLOUDY    32  29  88 CALM      29.67F
$$

ABBREVIATIONS USED IN REMARKS
   TC - TEMPERATURE IN CELSIUS
  WCI - WIND CHILL INDEX
   HX - HEAT INDEX
  VSB - VISIBILITY





USA.gov is the U.S. government's official web portal to all federal, state and local government web resources and services.